Weather in Ordo-Vasylivka

Ukraine / Dnipropetrovsk Region     48°11′40″N   33°42′24″E
temp.,
°C
wind,
m/s
gust,
m/s
humid.,
%
clouds,
%
prec.,
mm/h
press.,
hPa
HPBL,
m
15 may, sat
sat1500:00+13ssw488215 0.0 1011154
03:00+11ssw49831 0.0 1011160
06:00+11ssw398673 0.0 1012182
09:00+18ssw58653 0.0 1012603
12:00+22ssw78485 0.0 10131761
15:00+23sw574289 0.0 10122349
18:00+23ssw454769 0.0 10121636
21:00+17wsw3561100 0.0 101369
16 may, sun
sun1600:00+15w227134 0.0 101313
03:00+13w11780 0.0 101310
06:00+14ene117592 0.0 101311
09:00+20ne2354100 0.0 1013475
12:00+24ene3445100 0.0 10121705
15:00+25ene454014 0.0 10101978
18:00+24ne464733 0.0 1009772
21:00+19nne51069100 0.0 1008174
17 may, mon
mon1700:00+18ne51182100 0.6 1007236
03:00+16nnw1194100 1.9 100526
06:00+17nne3491100 0.9 1005106
09:00+20nne3474100 0.9 1004415
12:00+22ene1163100 0.0 1004828
15:00+24s346099 1.4 10041150
18:00+21wsw447599 2.5 1004459
21:00+17wnw479395 5.1 1006233
18 may, tue
tue1800:00+15wsw369696 1.7 1007178
03:00+14sw349514 1.7 100778
06:00+14ssw37955 0.0 1008215
09:00+18ssw45730 0.0 1009560
12:00+23ssw575448 0.3 10091514
15:00+19sw4872100 2.3 1008264
18:00+20ssw7107377 3.0 10071086
21:00+16sw512864 3.9 1008301
19 may, wed
wed1900:00+14wsw499344 0.0 1010186
03:00+13wsw3391100 0.0 101052
06:00+14s2391100 0.2 101087
09:00+16ssw4992100 1.6 1011489
12:00+15ssw3494100 1.0 1011308
15:00+17ne238566 2.6 1010437
18:00+20e387583 0.1 1007590
21:00+17se51277100 0.5 1007495